Vertical_Velocity
-2 1 2 2 1 -0 -1 -1 -0 -0 0 -0 -0 -0 1 1 0 -1 -0 1 1 0 -0 1 0 1 -0 0 -9 -0 2 2 1 0 -1 -2 1 -0 -0 0 3 2 -2 2 -0 3 -1
0 1 1 1 1 -0 -0 -1 -1 -1 -1 -1 -0 -1 1 -0 0 -1 -0 1 1 1 -1 -0 2 -0 1 -2 -1 1 2 2 2 -1 -1 -2 -2 4 -0 -0 -1 1 0 -3 -3 -3 2
1 3 -0 -1 0 -0 -0 -0 0 0 2 1 1 1 1 1 1 -0 -0 -0 -2 0 0 1 1 0 1 -16 -2 0 2 3 2 3 -1 -1 3 2 3 -1 1 0 -2 -2 -2 -2 -2
2 -1 0 1 -0 -0 -1 1 0 -0 1 -0 0 0 1 1 1 2 0 -0 -0 0 -0 0 1 2 -9 1 0 -2 1 0 1 3 2 1 -0 -0 -1 2 -3 1 -0 -1 -6 0 -0
0 0 0 1 -1 -0 0 0 -0 -1 0 1 0 -0 1 2 2 0 0 1 2 1 1 2 4 1 -9 2 2 2 2 1 2 1 2 1 -0 -2 3 -1 -3 -1 -2 1 -6 -0 -2
-2 -1 -1 -1 -1 -0 0 0 -0 0 -0 0 1 -1 -0 0 -0 0 1 1 0 0 1 1 3 1 -0 -5 2 -1 1 3 -1 2 1 0 1 -0 0 -2 -6 -3 1 -0 -1 -3 -0
-1 -1 -1 -1 -1 -0 -1 -1 -1 -1 -2 -1 0 -0 -1 -0 1 -0 -1 1 0 2 2 -7 -2 1 -1 -1 2 4 6 4 4 4 -1 -1 -2 -3 -6 -3 -2 0 1 0 -3 -3 -2
-2 -0 -1 -1 -2 -1 -1 -1 -1 -1 -2 -2 -1 -1 0 0 1 0 1 -1 -1 1 -9 -1 5 5 8 2 -1 0 2 -0 2 -1 1 1 -3 -6 -0 1 2 1 1 -4 -5 -0 1
-0 -1 -1 -1 -1 -2 -1 -1 -1 -1 -1 -1 -2 -2 -3 -1 1 -1 1 0 1 0 1 -3 3 2 -3 -4 -2 -3 -1 -0 -1 2 -0 -3 -11 0 1 0 4 -2 -0 -1 -1 -2 -1
-0 -1 -2 -1 -0 -1 -1 -1 -0 -1 -1 -2 -3 -2 -2 -0 1 -0 0 1 1 -0 -4 -6 -0 -1 3 3 -2 2 2 2 2 -5 -0 -3 -8 2 2 -0 0 3 -2 1 1 2 -5
-1 -1 -1 -3 -2 -2 -2 -2 -2 -1 -1 -1 -1 -3 0 -3 -1 1 1 1 0 -1 -8 -6 2 2 1 -3 1 1 3 3 -0 -1 1 -22 0 1 2 -12 -1 -11 0 -1 -0 1 0
-0 -1 -2 -2 -2 -2 -2 -1 -2 -1 -2 -1 -0 -3 0 -2 -2 -1 0 1 -1 -16 -17 0 0 -0 -1 0 1 0 -0 -2 1 2 0 -5 -0 1 -7 0 -0 -1 -1 -1 -1 -2 -0
-4 -2 -2 -2 -0 -2 -1 -1 -1 -1 -2 -1 -2 0 0 0 -0 -0 -0 -0 -14 -7 -13 3 1 0 -0 -0 2 1 0 2 -3 -2 -1 -3 -3 -1 -2 1 -1 1 -4 -3 -4 -3 -9
-0 -2 -1 -1 -1 -2 -0 -0 0 0 -1 1 -0 1 1 1 0 -0 -0 -8 -1 -4 2 -1 -1 0 -0 0 -4 1 1 -1 -1 2 0 -0 -15 -2 -3 -8 -11 -2 -8 -8 -4 -2 -4
1 -3 -1 -1 -1 -1 -1 -1 -2 0 -0 3 0 -0 -2 0 1 -0 -0 -4 4 1 3 1 -6 -2 -3 -2 1 -1 -0 -0 -0 -1 -1 2 -5 0 -0 -0 -9 -3 -1 -11 0 -1 -0
1 -1 -1 -2 -1 -1 -1 -3 -1 -1 -4 -1 -1 -2 -5 0 2 -0 -7 -0 -1 1 1 -1 -2 -4 0 -1 -4 -5 -1 2 -3 2 3 -7 -2 -1 -2 -2 -1 -8 -5 -5 -0 -1 0
-2 0 -1 -2 0 -1 -2 -4 -6 2 3 -2 -1 -2 -2 -3 -3 -3 -3 2 0 2 -2 -1 1 -1 2 1 2 -0 -3 4 -1 -5 -1 2 4 -10 -1 -2 -5 -2 -0 1 -3 -3 -3
-3 -1 -2 -2 -1 -0 -1 -2 -2 -3 -0 3 -2 -6 -5 -4 -12 1 -0 2 3 1 -2 -1 -3 -0 1 1 -0 1 1 2 1 3 -0 4 3 -0 -9 -3 -2 -1 -1 -1 7 -9 -2
-0 -1 -0 -0 -0 1 -1 -2 -2 -4 -7 -5 -3 -1 1 -0 -5 -1 -3 -2 1 -3 1 -1 0 -0 0 0 -1 1 -0 2 1 -0 0 -1 -3 -1 -9 -6 -7 -2 1 1 1 1 -5
-1 -1 -1 -2 -1 -3 -2 -2 -0 -2 -1 -6 -2 -6 -4 -13 1 -3 -0 0 -1 -1 0 -0 0 -3 -0 1 -0 -1 -2 -4 -3 1 7 1 0 4 4 4 5 1 -1 -1 2 3 1
-1 -2 -3 -4 -8 -2 -2 -5 -5 -6 -4 -5 -4 3 3 -2 -6 -1 -2 -0 -0 -2 -1 1 -2 -2 2 0 -1 0 -1 -3 -2 -3 -1 2 2 4 -2 -0 1 1 1 0 -2 2 -1
-1 -1 0 -2 -4 -5 -5 -3 -7 -7 -3 -27 -4 -4 -2 -0 -2 -3 -1 0 1 -1 3 -1 -3 -0 1 1 2 -1 3 1 -2 -5 -1 -2 -5 1 -7 -2 1 -1 -0 -0 0 -1 -1
0 -1 -3 -2 -3 -2 -7 -8 -7 -4 -1 -6 -0 3 1 3 -1 -4 2 2 2 -0 -6 5 5 3 0 -3 3 -2 -1 -2 -3 4 -1 3 0 -2 -5 0 2 -3 6 1 1 -0 3
-2 -1 -3 -0 -2 -6 -2 -4 -1 1 -4 -9 -4 -2 -4 -0 -2 1 -0 0 0 1 1 -1 1 4 -6 -4 -10 -3 7 4 5 -5 3 1 2 -0 -3 -2 3 7 1 -2 -4 2 -0
-1 0 -3 -2 -1 -1 -4 1 0 2 -4 -11 -6 -6 -3 -1 2 -1 -3 1 -2 -4 -0 3 -0 9 4 1 -0 -3 -4 1 4 1 -1 0 -0 -2 -4 -0 2 0 1 0 1 2 2
-2 -3 -3 -1 -2 -1 0 0 -1 -2 -7 -11 -5 -1 -3 -2 -3 5 -0 3 0 -0 -5 -3 -9 -6 1 1 2 0 -0 1 -0 -3 -1 -2 -2 -6 -3 -3 -2 -4 -2 3 2 -3 0
-3 0 -0 -2 -5 -0 -2 3 -2 -3 -2 -4 -4 -3 -3 -0 0 2 -2 1 1 -1 0 0 -5 -9 3 0 0 -0 -0 4 -2 -0 -2 -3 -4 -2 -0 -0 -5 -3 -1 2 -11 -15 1
-1 -2 -5 -2 3 4 -0 -2 -4 -4 -0 1 4 -1 -4 -3 -5 -1 1 -1 -1 2 0 -7 -7 -7 -3 -4 1 0 -1 1 -4 1 2 -2 -2 -0 -3 -3 -5 1 -5 -11 -8 -2 1
-6 1 1 2 -1 -1 -2 -2 -0 2 1 4 -2 -4 0 -2 -0 1 5 1 0 2 3 0 -1 -1 -1 -1 -3 -2 -2 -2 -0 -0 -1 -1 -1 -1 -5 -6 -1 0 -4 -1 0 3 -2
Height
1519 1516 1513 1510 1507 1504 1502 1499 1497 1494 1491 1488 1485 1483 1480 1478 1476 1476 1476 1477 1477 1478 1478 1478 1479 1479 1480 1479 1475 1475 1475 1476 1478 1479 1480 1482 1483 1485 1485 1482 1482 1481 1477 1475 1474 1474 1473
1519 1517 1513 1510 1507 1505 1502 1500 1498 1495 1492 1489 1485 1483 1480 1477 1475 1474 1474 1475 1475 1476 1476 1477 1477 1477 1478 1478 1473 1473 1474 1475 1476 1477 1478 1480 1482 1483 1482 1480 1480 1476 1475 1473 1470 1469 1470
1519 1516 1513 1510 1508 1505 1503 1500 1498 1495 1492 1488 1485 1482 1480 1477 1475 1474 1473 1473 1473 1474 1474 1475 1475 1475 1475 1472 1470 1472 1473 1474 1474 1475 1477 1479 1480 1482 1480 1478 1476 1474 1476 1471 1464 1461 1466
1519 1515 1513 1510 1507 1505 1502 1500 1497 1494 1491 1488 1485 1482 1479 1477 1474 1473 1472 1471 1471 1471 1472 1472 1473 1473 1470 1467 1467 1469 1471 1472 1473 1474 1475 1476 1477 1479 1479 1478 1476 1476 1476 1480 1459 1459 1464
1518 1515 1513 1510 1507 1505 1502 1499 1496 1493 1491 1488 1485 1482 1479 1476 1473 1472 1471 1469 1468 1468 1469 1470 1471 1471 1467 1465 1465 1467 1469 1470 1471 1472 1473 1475 1476 1477 1477 1480 1486 1478 1484 1477 1466 1458 1461
1518 1515 1512 1509 1507 1504 1501 1498 1495 1492 1489 1486 1484 1481 1478 1476 1473 1472 1470 1467 1466 1466 1467 1469 1469 1472 1464 1462 1462 1463 1467 1469 1470 1471 1472 1474 1475 1476 1477 1483 1491 1480 1480 1471 1468 1460 1461
1517 1515 1512 1509 1506 1504 1500 1497 1494 1491 1488 1485 1482 1480 1478 1475 1473 1471 1469 1467 1470 1469 1465 1460 1459 1457 1458 1460 1462 1463 1466 1468 1470 1471 1472 1471 1477 1475 1470 1468 1466 1466 1469 1473 1462 1455 1459
1517 1515 1512 1508 1505 1502 1499 1496 1493 1489 1486 1483 1481 1478 1476 1473 1471 1470 1468 1467 1467 1468 1460 1454 1453 1456 1457 1458 1460 1462 1465 1468 1467 1469 1468 1472 1473 1460 1461 1464 1468 1468 1470 1468 1457 1450 1456
1517 1514 1511 1508 1504 1500 1497 1494 1490 1487 1484 1481 1478 1476 1473 1472 1470 1469 1468 1467 1465 1464 1462 1451 1450 1450 1454 1457 1457 1457 1461 1462 1463 1466 1466 1469 1458 1450 1458 1461 1465 1462 1463 1462 1461 1451 1450
1517 1514 1510 1506 1503 1499 1495 1491 1487 1483 1480 1478 1475 1473 1471 1470 1470 1467 1466 1466 1464 1462 1467 1452 1450 1451 1452 1454 1455 1454 1457 1461 1460 1461 1462 1461 1450 1451 1453 1456 1456 1462 1451 1452 1454 1459 1470
1517 1513 1509 1505 1501 1497 1493 1489 1484 1480 1477 1474 1472 1469 1468 1467 1467 1466 1467 1465 1463 1463 1492 1450 1451 1452 1452 1455 1455 1456 1456 1458 1458 1457 1457 1455 1445 1448 1451 1445 1447 1447 1444 1447 1448 1455 1457
1516 1512 1507 1503 1499 1494 1491 1487 1482 1478 1474 1470 1467 1464 1464 1464 1464 1464 1464 1463 1464 1472 1486 1452 1452 1453 1455 1454 1454 1454 1456 1457 1457 1457 1454 1450 1445 1444 1442 1441 1441 1442 1446 1449 1455 1463 1471
1514 1510 1506 1502 1497 1493 1489 1485 1481 1476 1471 1467 1462 1459 1460 1461 1462 1462 1463 1463 1475 1482 1445 1455 1453 1453 1454 1453 1453 1452 1455 1458 1461 1463 1460 1446 1440 1435 1436 1442 1443 1443 1454 1471 1470 1479 1462
1513 1509 1505 1501 1496 1492 1488 1483 1479 1473 1468 1464 1459 1458 1459 1460 1460 1460 1461 1465 1472 1461 1460 1456 1456 1452 1454 1446 1447 1450 1454 1459 1455 1454 1456 1455 1445 1433 1429 1431 1438 1445 1445 1462 1460 1464 1453
1513 1509 1505 1501 1496 1492 1487 1482 1477 1472 1466 1463 1461 1460 1460 1460 1459 1460 1462 1473 1478 1471 1469 1465 1457 1457 1459 1456 1459 1452 1454 1453 1448 1450 1456 1447 1439 1425 1425 1426 1429 1438 1446 1434 1444 1443 1454
1513 1509 1505 1501 1496 1491 1486 1481 1476 1470 1465 1461 1462 1461 1461 1461 1460 1460 1463 1466 1474 1475 1471 1466 1467 1467 1471 1467 1466 1465 1460 1474 1465 1462 1460 1446 1440 1422 1424 1425 1427 1431 1431 1441 1445 1447 1450
1514 1510 1505 1501 1497 1491 1486 1480 1475 1469 1463 1461 1462 1463 1464 1461 1461 1462 1471 1475 1474 1477 1474 1474 1475 1474 1477 1481 1480 1471 1461 1471 1469 1464 1461 1462 1449 1429 1428 1428 1428 1434 1433 1430 1430 1432 1430
1515 1511 1506 1502 1498 1493 1487 1481 1475 1468 1463 1462 1462 1467 1466 1462 1465 1469 1479 1478 1478 1479 1478 1479 1479 1480 1480 1481 1481 1476 1471 1475 1475 1477 1474 1471 1462 1449 1431 1418 1416 1418 1417 1417 1418 1422 1426
1518 1514 1509 1504 1499 1495 1489 1484 1478 1472 1466 1463 1467 1470 1469 1464 1480 1485 1482 1482 1481 1481 1485 1484 1484 1486 1487 1487 1486 1478 1474 1473 1475 1475 1476 1473 1463 1453 1429 1420 1426 1433 1448 1453 1442 1428 1420
1520 1515 1510 1505 1501 1497 1491 1486 1481 1475 1471 1468 1471 1476 1474 1475 1482 1484 1486 1484 1486 1486 1487 1488 1486 1488 1488 1487 1486 1484 1482 1476 1476 1475 1472 1473 1467 1464 1458 1459 1461 1453 1464 1466 1455 1441 1454
1522 1518 1513 1509 1504 1499 1493 1488 1484 1479 1474 1473 1476 1486 1488 1490 1486 1487 1487 1490 1489 1494 1491 1489 1486 1495 1498 1494 1489 1484 1481 1479 1475 1471 1468 1471 1470 1463 1459 1459 1460 1481 1482 1477 1475 1484 1470
1525 1522 1517 1513 1508 1502 1497 1493 1487 1483 1480 1476 1484 1490 1490 1490 1490 1489 1491 1498 1498 1497 1496 1492 1495 1495 1496 1497 1493 1489 1488 1485 1479 1472 1471 1471 1482 1468 1462 1455 1453 1489 1490 1491 1494 1496 1489
1527 1524 1519 1515 1511 1507 1502 1499 1495 1490 1485 1486 1492 1494 1494 1495 1494 1495 1501 1500 1499 1498 1495 1493 1493 1493 1492 1489 1487 1483 1481 1477 1474 1475 1474 1476 1474 1485 1484 1453 1462 1470 1502 1502 1508 1511 1504
1528 1525 1521 1517 1514 1511 1508 1505 1502 1498 1494 1494 1498 1498 1499 1500 1499 1501 1501 1501 1500 1498 1496 1493 1492 1491 1488 1484 1479 1470 1464 1463 1467 1467 1467 1468 1464 1467 1481 1458 1466 1512 1513 1512 1513 1515 1514
1529 1526 1524 1520 1517 1514 1512 1509 1506 1502 1500 1499 1501 1501 1502 1504 1502 1502 1501 1500 1499 1496 1494 1491 1490 1489 1485 1481 1478 1470 1462 1460 1466 1466 1465 1464 1464 1480 1483 1493 1510 1511 1513 1515 1515 1519 1517
1530 1527 1525 1522 1519 1516 1513 1510 1507 1504 1503 1504 1504 1503 1504 1505 1505 1503 1501 1499 1499 1498 1494 1491 1488 1486 1483 1482 1478 1487 1475 1466 1469 1467 1469 1469 1469 1474 1490 1502 1507 1520 1515 1513 1515 1517 1519
1532 1529 1525 1522 1521 1518 1513 1510 1507 1506 1506 1506 1505 1503 1504 1504 1502 1502 1501 1500 1499 1499 1498 1492 1489 1484 1483 1482 1482 1487 1480 1469 1483 1491 1493 1487 1496 1509 1502 1523 1528 1520 1516 1512 1519 1526 1518
1532 1529 1526 1523 1520 1516 1512 1510 1508 1506 1506 1506 1505 1504 1504 1504 1500 1500 1499 1498 1497 1498 1498 1494 1491 1489 1487 1488 1483 1483 1483 1485 1497 1507 1508 1521 1528 1519 1521 1525 1514 1519 1516 1519 1524 1519 1517
1532 1530 1525 1521 1517 1514 1512 1510 1507 1505 1503 1504 1504 1504 1503 1503 1499 1498 1497 1497 1498 1497 1497 1495 1494 1493 1491 1490 1489 1490 1500 1494 1498 1516 1512 1512 1524 1522 1524 1524 1521 1519 1519 1521 1520 1519 1515